Wind_Speed
11 10 10 9 9 9 9 9 9 8 8 8 8 8 7 7 6 6 6 6 5 5 5 5 5 5 5 5 5 4 4 4 4 4 4 3 3 3 3 3 3 3 3
12 12 11 11 11 10 10 10 10 10 9 9 9 9 9 8 8 8 8 7 7 7 6 6 6 6 6 6 6 6 6 6 5 5 5 5 5 5 5 5 5 5 5
13 13 13 12 12 12 11 11 11 11 11 10 10 10 10 10 9 9 9 8 8 8 8 8 7 7 7 7 7 7 7 7 7 7 7 7 7 7 7 7 7 7 6
14 14 14 14 13 13 12 12 13 12 12 12 12 12 11 11 11 10 10 10 10 10 10 10 9 9 9 8 8 9 9 9 9 9 9 8 8 8 8 8 8 8 8
17 16 16 15 15 15 14 14 14 14 14 14 14 13 13 13 12 12 12 12 12 12 11 11 11 11 10 10 10 9 9 9 10 11 11 10 10 10 10 10 10 10 9
18 18 18 17 17 17 16 16 15 15 15 15 15 15 15 14 14 14 13 13 13 13 13 13 12 12 12 11 11 11 11 10 11 11 12 12 12 12 12 12 12 12 12
20 19 19 19 19 18 18 17 17 17 17 17 17 17 16 16 16 16 15 15 14 14 14 14 14 14 14 13 13 13 13 12 12 12 13 13 13 13 13 13 13 13 13
21 20 19 19 19 19 18 19 19 18 19 18 18 18 18 18 18 18 18 17 17 16 16 16 15 15 16 15 15 15 14 14 14 14 14 14 15 15 14 14 14 14 14
22 21 21 21 20 20 19 20 20 20 20 20 20 20 20 19 19 20 20 20 19 19 18 18 17 17 17 17 17 17 17 17 16 16 16 17 17 17 16 16 16 16 16
23 22 22 23 22 22 22 21 21 21 21 21 21 21 21 21 21 21 21 21 21 21 20 20 20 20 19 19 20 20 19 19 19 19 19 19 19 19 19 19 18 18 18
25 24 24 24 24 23 24 23 23 23 23 23 23 23 23 24 23 23 23 23 23 23 23 23 23 22 22 22 21 22 21 22 22 22 21 21 21 21 21 21 20 20 20
27 26 26 25 25 25 25 26 25 25 25 25 25 25 25 25 26 25 25 25 25 25 25 25 25 25 24 24 24 24 24 24 24 24 24 24 23 23 23 23 23 22 22
29 28 27 27 27 28 27 28 28 27 27 27 27 26 27 27 27 28 27 27 27 27 28 27 27 27 27 26 26 26 26 26 26 26 26 26 26 26 26 25 25 25 24
30 30 29 29 29 29 30 29 29 29 29 29 29 29 29 29 29 29 29 29 29 29 29 29 29 29 29 29 29 29 29 29 29 29 29 28 28 29 28 28 28 27 27
31 31 31 31 30 30 31 31 31 31 31 31 31 31 31 31 31 31 31 31 31 31 31 31 31 31 31 31 31 31 32 32 31 31 31 30 30 30 30 31 30 30 29
33 33 32 32 32 32 32 32 32 32 33 33 33 33 34 34 34 34 33 34 33 33 33 33 33 33 33 33 33 33 33 34 33 33 33 33 33 32 32 33 33 33 32
34 34 34 34 33 33 34 34 34 34 34 34 35 35 35 36 36 36 36 36 35 35 35 35 35 35 35 35 35 34 34 35 35 35 35 35 35 35 35 35 35 35 34
35 35 35 35 35 35 35 36 36 36 36 36 36 36 36 36 37 37 38 37 37 37 37 37 37 37 37 37 37 36 36 36 37 38 38 38 37 37 37 37 37 36 36
36 35 36 36 36 36 36 37 38 38 38 38 37 37 38 38 38 39 39 40 39 39 39 39 39 39 39 39 39 39 39 39 38 39 40 40 39 39 39 39 39 38 38
37 37 37 37 37 37 37 37 38 39 39 39 39 39 39 39 38 39 40 41 41 41 40 40 40 41 41 41 41 41 41 41 41 41 41 41 41 40 40 40 40 39 40
39 39 39 38 39 39 39 39 39 39 40 40 41 41 41 40 40 40 41 41 42 42 42 41 41 42 42 42 42 42 42 42 42 42 42 42 41 41 41 40 40 40 40
40 40 40 40 40 40 40 40 41 40 40 41 42 42 41 42 42 41 41 42 42 42 42 43 42 42 43 43 43 43 43 43 43 43 43 42 42 41 41 41 41 41 41
39 40 40 40 41 41 42 42 42 42 42 42 42 42 42 43 43 43 43 43 44 44 44 44 44 44 44 44 45 45 44 44 44 44 44 43 43 43 42 42 42 42 42
39 40 40 41 41 42 42 43 43 43 44 44 43 43 43 43 43 44 44 45 45 45 45 45 45 45 46 46 45 45 46 46 45 45 45 45 45 45 45 44 44 44 44
39 39 40 40 41 42 43 43 44 44 44 44 44 44 45 44 43 44 44 45 45 45 46 46 46 47 47 47 47 47 47 47 47 46 45 46 47 47 47 47 46 46 46
40 40 40 41 42 43 44 44 44 45 45 45 45 45 45 45 44 44 45 45 45 46 47 47 47 48 48 49 49 49 49 49 49 49 48 47 47 48 48 48 47 47 47
Wind_Direction
234 233 232 229 226 227 227 226 224 223 219 219 219 217 218 218 218 224 221 220 219 219 222 220 220 221 221 223 225 223 225 231 231 232 237 241 248 261 272 277 280 283 281
238 236 236 234 231 228 227 226 225 225 224 224 224 224 225 228 230 232 231 230 229 230 228 227 230 234 234 236 240 241 244 247 246 245 248 253 259 266 272 274 274 276 278
239 239 239 238 235 230 227 226 228 229 230 231 229 229 230 232 233 232 236 240 241 241 239 240 244 249 248 250 250 251 252 254 254 256 257 260 264 267 269 271 274 276 276
243 242 242 240 236 232 230 230 231 232 234 235 235 234 234 236 236 236 239 242 245 247 250 252 255 259 258 258 259 258 254 254 257 260 262 264 267 270 271 272 274 276 276
246 246 244 241 236 234 233 234 235 236 237 239 240 239 238 240 241 242 245 246 247 249 252 257 258 260 260 261 261 262 260 260 259 260 263 266 268 270 272 274 275 277 277
244 246 245 241 236 235 234 236 237 239 240 241 243 243 242 243 244 245 247 248 251 253 255 260 263 262 262 263 263 263 264 263 263 263 265 267 268 271 272 274 275 275 276
243 243 244 241 238 236 237 239 239 241 242 243 245 246 246 246 248 249 250 250 253 255 258 261 264 263 263 264 263 264 265 265 264 264 265 268 269 270 272 273 274 274 273
243 241 242 241 240 240 240 241 243 244 245 245 246 248 248 250 251 251 253 255 257 258 259 261 264 265 264 265 265 265 266 267 267 266 267 269 270 271 272 273 274 274 273
243 241 242 241 242 243 243 244 246 246 246 248 248 249 250 251 253 254 255 256 257 259 259 260 263 267 268 265 265 267 268 268 268 268 268 269 271 272 272 272 273 274 273
242 243 244 245 246 246 245 246 247 247 248 250 250 251 252 254 256 257 257 258 259 261 262 262 263 265 268 268 267 267 268 268 268 268 270 270 271 272 273 274 273 273 272
245 246 246 247 249 248 247 247 249 250 250 251 253 253 254 255 257 258 258 259 261 263 263 263 264 264 265 266 268 267 268 269 269 269 270 271 271 271 273 274 274 272 272
246 247 248 249 250 251 251 249 251 252 252 253 255 256 256 257 257 258 260 261 262 263 264 265 265 266 266 267 267 267 267 268 269 269 270 270 271 272 272 273 273 272 272
246 247 249 250 251 253 254 253 252 253 253 254 255 255 256 258 259 261 261 262 262 263 264 265 265 266 266 266 267 267 267 267 268 269 270 270 271 271 272 272 273 273 272
247 248 250 251 253 255 255 256 254 254 254 255 256 257 258 259 261 262 263 263 263 264 265 264 265 266 266 267 267 267 268 267 268 269 269 269 271 271 271 271 272 272 271
248 249 251 252 253 254 254 255 256 256 256 257 257 257 258 259 261 262 264 263 263 264 265 265 266 267 267 268 269 269 270 269 270 270 269 269 270 271 271 271 271 270 271
248 250 252 254 254 254 254 256 257 257 258 259 260 260 260 261 262 263 264 264 264 264 266 266 266 266 267 268 269 271 271 271 271 270 270 270 270 271 271 271 271 270 270
249 251 252 253 254 254 255 257 258 260 261 261 260 261 262 262 262 263 264 264 264 265 266 266 266 267 267 269 270 271 272 272 272 271 270 270 270 270 271 270 270 270 270
250 251 253 253 254 255 257 257 258 259 261 262 262 262 262 263 263 264 264 264 265 266 266 266 266 266 268 269 270 270 271 271 272 272 271 270 270 270 270 269 269 268 269
251 252 254 255 256 257 258 259 259 260 262 263 264 265 264 264 265 264 264 265 266 266 266 266 266 267 267 268 270 270 271 271 271 272 272 271 270 269 268 268 268 268 268
251 253 254 255 256 258 259 260 261 262 262 263 263 265 266 266 267 266 265 266 266 266 266 266 267 267 268 269 270 271 271 271 271 271 271 271 270 268 268 268 267 267 267
251 252 254 255 257 259 259 260 261 263 263 263 264 266 266 267 267 267 266 266 266 266 266 267 267 268 269 270 270 270 271 271 271 271 271 270 269 269 268 267 266 267 267
252 253 254 255 257 259 260 260 260 262 263 263 264 265 267 267 267 267 267 267 267 267 267 268 268 269 269 270 270 269 269 269 270 270 270 270 270 269 268 267 266 266 266
254 254 254 256 258 259 260 260 261 261 262 263 265 265 267 267 266 266 266 267 268 268 268 268 268 269 270 270 270 270 269 269 269 270 270 270 269 269 268 268 267 266 266
255 256 256 257 258 259 260 261 261 261 262 263 264 265 266 267 266 266 266 267 267 268 268 267 267 269 269 270 269 270 269 269 269 269 269 269 269 269 268 268 267 266 266
256 257 258 259 259 260 260 261 261 262 263 263 264 265 266 267 267 266 266 266 267 267 268 268 269 269 269 269 270 270 269 269 269 269 269 269 269 269 268 267 267 266 266
257 258 259 260 260 260 260 260 261 261 262 263 264 265 265 265 267 267 267 267 267 267 268 269 269 270 270 269 270 270 270 270 270 270 269 268 268 267 267 267 267 266 266
Height
5857 5857 5858 5858 5859 5860 5861 5862 5863 5864 5865 5865 5866 5866 5867 5867 5868 5868 5869 5869 5869 5869 5869 5869 5869 5869 5869 5869 5869 5869 5869 5869 5869 5869 5869 5869 5868 5868 5868 5868 5867 5867 5866
5855 5856 5857 5857 5858 5859 5860 5861 5862 5863 5864 5864 5865 5866 5866 5867 5867 5867 5868 5868 5868 5868 5869 5868 5868 5868 5869 5869 5869 5868 5868 5868 5868 5868 5868 5868 5868 5867 5867 5867 5867 5866 5865
5853 5854 5855 5855 5856 5857 5858 5859 5860 5861 5862 5863 5864 5864 5865 5866 5866 5866 5867 5867 5867 5868 5868 5868 5868 5868 5868 5868 5868 5868 5867 5867 5867 5867 5867 5867 5866 5866 5866 5866 5865 5865 5864
5851 5852 5853 5854 5854 5855 5856 5858 5859 5860 5860 5861 5862 5863 5864 5864 5865 5865 5865 5866 5866 5866 5867 5867 5867 5866 5866 5866 5866 5866 5866 5866 5866 5865 5865 5865 5865 5865 5865 5864 5864 5863 5863
5848 5849 5850 5851 5852 5853 5855 5856 5857 5858 5859 5859 5860 5861 5862 5862 5863 5863 5864 5864 5865 5865 5865 5865 5865 5865 5865 5865 5865 5865 5864 5864 5864 5864 5864 5864 5863 5863 5863 5862 5862 5861 5861
5845 5846 5847 5848 5849 5851 5852 5853 5854 5855 5856 5857 5858 5859 5859 5860 5861 5861 5862 5862 5862 5863 5863 5863 5863 5863 5863 5863 5863 5862 5862 5862 5862 5862 5861 5861 5861 5861 5861 5860 5860 5859 5859
5842 5843 5844 5845 5846 5848 5849 5850 5851 5852 5853 5854 5855 5856 5857 5858 5858 5859 5859 5859 5860 5860 5860 5860 5860 5860 5860 5860 5860 5860 5860 5860 5860 5859 5859 5859 5859 5858 5858 5857 5857 5857 5856
5838 5839 5841 5842 5843 5845 5846 5847 5848 5849 5850 5851 5852 5853 5854 5855 5855 5856 5856 5856 5857 5857 5857 5857 5857 5857 5857 5857 5857 5857 5857 5857 5857 5857 5856 5856 5856 5855 5855 5855 5854 5854 5853
5834 5835 5837 5839 5840 5841 5842 5844 5845 5846 5847 5848 5849 5850 5850 5851 5852 5852 5853 5853 5853 5853 5854 5854 5854 5854 5854 5853 5853 5854 5853 5853 5853 5853 5853 5853 5852 5852 5852 5851 5851 5851 5850
5830 5831 5833 5835 5836 5837 5838 5840 5841 5842 5843 5844 5845 5846 5846 5847 5848 5848 5849 5849 5849 5849 5850 5850 5850 5850 5850 5850 5850 5850 5849 5850 5849 5849 5849 5849 5848 5848 5848 5848 5847 5847 5846
5825 5827 5829 5830 5832 5833 5834 5835 5836 5837 5838 5839 5840 5841 5842 5842 5843 5844 5844 5845 5845 5845 5845 5845 5845 5845 5845 5845 5845 5845 5845 5845 5845 5845 5844 5844 5844 5844 5843 5843 5843 5843 5842
5820 5822 5823 5825 5827 5828 5829 5830 5831 5832 5833 5834 5835 5836 5837 5837 5838 5839 5839 5840 5840 5840 5840 5840 5840 5840 5840 5840 5840 5840 5840 5840 5840 5840 5839 5839 5839 5838 5838 5838 5838 5837 5837
5814 5816 5818 5820 5821 5823 5824 5825 5826 5827 5828 5829 5830 5830 5831 5832 5833 5833 5833 5834 5834 5835 5835 5835 5835 5835 5835 5835 5835 5835 5834 5834 5834 5834 5834 5833 5833 5833 5833 5832 5832 5832 5832
5808 5811 5812 5813 5815 5816 5818 5819 5820 5821 5822 5823 5824 5824 5825 5826 5826 5827 5827 5828 5828 5828 5828 5829 5829 5829 5829 5829 5829 5828 5828 5828 5828 5828 5828 5827 5827 5827 5826 5826 5826 5826 5825
5802 5804 5805 5807 5808 5810 5811 5812 5813 5814 5815 5816 5817 5818 5819 5819 5820 5820 5821 5821 5821 5822 5822 5822 5822 5822 5822 5822 5822 5821 5821 5821 5821 5821 5820 5820 5820 5820 5820 5819 5819 5819 5819
5795 5797 5798 5800 5802 5803 5804 5805 5806 5807 5808 5809 5810 5811 5811 5812 5813 5813 5813 5814 5814 5815 5815 5815 5815 5814 5814 5814 5814 5814 5814 5813 5813 5813 5813 5812 5812 5812 5812 5812 5812 5812 5811
5788 5789 5791 5793 5794 5796 5797 5798 5799 5800 5801 5802 5802 5803 5804 5804 5805 5805 5806 5806 5806 5807 5807 5807 5807 5807 5807 5807 5807 5806 5806 5805 5805 5804 5804 5804 5804 5804 5804 5804 5803 5803 5803
5779 5781 5783 5785 5786 5788 5789 5790 5791 5792 5793 5794 5794 5795 5795 5796 5796 5797 5797 5798 5798 5798 5798 5799 5799 5799 5799 5799 5798 5798 5797 5797 5796 5795 5795 5795 5795 5795 5795 5795 5794 5794 5794
5772 5773 5775 5777 5778 5780 5781 5782 5783 5784 5784 5785 5786 5786 5787 5787 5787 5788 5788 5789 5789 5789 5790 5790 5790 5790 5790 5790 5789 5789 5788 5787 5787 5786 5785 5785 5785 5785 5785 5785 5785 5785 5785
5763 5765 5767 5768 5770 5771 5772 5773 5774 5775 5776 5776 5777 5777 5778 5778 5778 5779 5779 5779 5780 5780 5780 5780 5780 5780 5780 5780 5779 5779 5778 5778 5777 5776 5775 5775 5774 5774 5774 5774 5775 5775 5775
5754 5756 5758 5759 5761 5762 5763 5764 5765 5766 5766 5767 5767 5768 5768 5768 5769 5769 5769 5769 5770 5770 5770 5770 5770 5770 5770 5769 5769 5769 5769 5768 5767 5766 5765 5764 5764 5764 5763 5764 5764 5765 5765
5744 5746 5748 5750 5751 5752 5754 5755 5756 5756 5757 5757 5758 5758 5758 5759 5759 5759 5759 5759 5760 5760 5760 5760 5760 5760 5759 5758 5758 5758 5758 5759 5757 5756 5755 5754 5753 5753 5753 5753 5754 5754 5755
5735 5736 5738 5740 5741 5742 5743 5744 5745 5746 5746 5747 5747 5748 5748 5748 5748 5748 5748 5748 5749 5749 5749 5749 5749 5749 5748 5747 5747 5746 5746 5746 5747 5746 5745 5744 5743 5743 5743 5743 5743 5743 5744
5725 5726 5728 5729 5730 5732 5733 5734 5735 5736 5736 5737 5737 5737 5737 5737 5737 5737 5737 5737 5737 5737 5737 5737 5737 5737 5737 5736 5735 5735 5734 5734 5734 5735 5734 5733 5732 5732 5732 5732 5732 5733 5733
5715 5716 5718 5719 5720 5721 5721 5722 5723 5724 5725 5725 5726 5726 5726 5726 5726 5726 5726 5726 5726 5725 5725 5725 5725 5725 5724 5724 5724 5723 5723 5722 5722 5723 5723 5722 5721 5721 5720 5720 5721 5721 5722
5705 5706 5707 5708 5708 5709 5710 5711 5712 5713 5714 5714 5715 5715 5715 5715 5715 5714 5714 5713 5713 5713 5713 5713 5713 5712 5712 5712 5711 5711 5711 5711 5710 5710 5711 5711 5710 5710 5709 5709 5709 5709 5710